STARLINK-5729, 55596

Orbit data source: Space-Track

STARLINK-5729, 55596 is a payload satellite owned by SpaceX/Seattle (US) in LEO that was launched on Sun, 12 Feb 2023 UTC via an FALCON 9 launch vehicle from the Air Force Eastern Test Range (AFETR). Payload-class satellites include a variety of spacecraft equipped with specific instruments for various scientific and technological missions. These include communications satellites like Starlink; space stations such as the ISS; scientific satellites like the Hubble; Earth observation satellites from companies like Planet Labs, Umbra, and HawkEye 360; GPS; miniature CubeSats for education and research; and military/defense satellites.

Loading next visibility...
Identifier
55596, 2023-020AD
Orbit
LEO
Country
Flag of USUS
Related business
Manufacturer
SpaceX/Seattle
Mission
Operational Commercial Communications
Bus & Motor
STARLINK, Unknown motor
Mass
305 kg wet, ~290 kg dry
Launch date (UTC)
2023-02-12 (3 years ago)
Launch vehicle
FALCON 9
Launch site
Air Force Eastern Test Range (AFETR)
Object type
Payload
Rocket body
Debris
Shape & HBR
Box + 1 Pan, 10.1 m
Radar Cross Section
13.562 m², Large (>1 m²)

Expand to show TLE details & history
Last TLE update: 23 hours ago

TLE from 23 hours ago
0 STARLINK-5729
1 55596U 23020AD  25344.67292515  .00000535  00000-0  54635-4 0  9992
2 55596  43.0020 127.9208 0001219 272.8301  87.2402 15.02536163155530
Epoch: 2025-12-10T16:09Z
TLE epoch observation values (Epoch: 2025-12-10T16:09:00.732Z)
Latitude
-0.00003°
Longitude
166.02784°
Altitude
558.817 km
Speed
7.584 km/s
True Right ascension
08h 31m 40s
True Declination
0° 00' 00"
Sunlit
Object was in full shadow at epoch
Visualization orbit readout
Latitude
Unknown
Longitude
Unknown
Altitude
Unknown
Speed
Unknown
Apparent Right ascension
Unknown
Apparent Declination
Unknown
Sunlit
N/A
Visualization observer readout
Local Sidereal Time
13:08:43
Azimuth
Unknown
Elevation
Unknown
Doppler factor
Unknown
Orbital elements
Apogee altitude
561.849 km
Perigee altitude
560.157 km
Semi-major axis
6,939.14 km
Eccentricity
0.00012
Inclination
43.002°
RAAN
127.9208°
Arg. of periapsis
272.8301°
True anomaly
87.25415°
Mean anomaly
87.2402°
Eccentric anomaly
87.24718°
Mean motion
3.75478 °/min
Orbital period
95.88 mins
BSTAR
0.000054635
Loading maneuver chart data...
Computing Atmospheric mass density...
Loading historical data...
Loading historical data...
Loading historical data...
Loading historical data...
Loading historical data...
Loading historical data...
Loading historical data...

Documentation

Showing up to 5 results
|